����,���ϕ���(m/s),���ϕ���,�ő�u�ԕ���(m/s),�ő啗��������,�C��(��),���x(%),10���Ԉړ��ώZ�J��(mm),1���Ԉړ��ώZ�J��(mm),���J��(mm),�݌v�J��(mm)
2023-04-03T00:00:00+09:00,1.3,�k�k��,2.6,�k,6.9,85.4,0,0,0,0
2023-04-03T00:01:00+09:00,1.2,�k�k��,2.6,�k�k��,6.9,85.6,0,0,0,0
2023-04-03T00:02:00+09:00,1.1,�k�k��,2.4,�k,6.8,85.7,0,0,0,0
2023-04-03T00:03:00+09:00,1.2,�k�k��,2.3,�k,6.9,86,0,0,0,0
2023-04-03T00:04:00+09:00,1.2,�k�k��,2.3,�k,6.9,86.3,0,0,0,0
2023-04-03T00:05:00+09:00,1.3,�k�k��,2.3,�k,6.9,86.5,0,0,0,0
2023-04-03T00:06:00+09:00,1.3,�k�k��,2.3,�k,6.8,86.4,0,0,0,0
2023-04-03T00:07:00+09:00,1.3,�k�k��,2.3,�k,6.9,86.6,0,0,0,0
2023-04-03T00:08:00+09:00,1.3,�k�k��,2.3,�k,7,86.7,0,0,0,0
2023-04-03T00:09:00+09:00,1.3,�k,2.3,�k,7,86.5,0,0,0,0
2023-04-03T00:10:00+09:00,1.3,�k,2.3,�k,7,86.4,0,0,0,0
2023-04-03T00:11:00+09:00,1.3,�k,2.3,�k,7,86.4,0,0,0,0
2023-04-03T00:12:00+09:00,1.2,�k,2.3,�k,7,86.2,0,0,0,0
2023-04-03T00:13:00+09:00,1.2,�k,2.3,�k,6.8,85.7,0,0,0,0
2023-04-03T00:14:00+09:00,1.2,�k�k��,2.2,�k�k��,6.7,85.3,0,0,0,0
2023-04-03T00:15:00+09:00,1.2,�k�k��,2.1,�k��,6.7,85.8,0,0,0,0
2023-04-03T00:16:00+09:00,1.2,�k�k��,2.3,�k�k��,6.7,86.2,0,0,0,0
2023-04-03T00:17:00+09:00,1.3,�k�k��,2.5,�k�k��,6.7,86.2,0,0,0,0
2023-04-03T00:18:00+09:00,1.4,�k�k��,2.5,�k�k��,6.6,86.4,0,0,0,0
2023-04-03T00:19:00+09:00,1.5,�k�k��,3.2,�k,7,87.4,0,0,0,0
2023-04-03T00:20:00+09:00,1.6,�k�k��,3.2,�k,6.8,87.2,0,0,0,0
2023-04-03T00:21:00+09:00,1.6,�k�k��,3.2,�k,6.8,86.5,0,0,0,0
2023-04-03T00:22:00+09:00,1.7,�k�k��,3.2,�k,6.7,86.3,0,0,0,0
2023-04-03T00:23:00+09:00,1.8,�k�k��,3.2,�k,6.6,86.2,0,0,0,0
2023-04-03T00:24:00+09:00,1.8,�k�k��,3.2,�k,6.7,86.6,0,0,0,0
2023-04-03T00:25:00+09:00,1.8,�k�k��,3.2,�k,6.6,86.8,0,0,0,0
2023-04-03T00:26:00+09:00,1.8,�k�k��,3.2,�k,6.6,87,0,0,0,0
2023-04-03T00:27:00+09:00,1.8,�k�k��,3.2,�k,6.6,87.2,0,0,0,0
2023-04-03T00:28:00+09:00,1.7,�k�k��,3.2,�k,6.6,87.2,0,0,0,0
2023-04-03T00:29:00+09:00,1.6,�k�k��,2.9,�k��,6.6,87.2,0,0,0,0
2023-04-03T00:30:00+09:00,1.6,�k�k��,2.9,�k��,6.7,87.5,0,0,0,0
2023-04-03T00:31:00+09:00,1.6,�k�k��,2.9,�k��,6.7,87.5,0,0,0,0
2023-04-03T00:32:00+09:00,1.6,�k�k��,2.9,�k��,6.6,87.4,0,0,0,0
2023-04-03T00:33:00+09:00,1.7,�k�k��,3.3,�k�k��,6.6,87.3,0,0,0,0
2023-04-03T00:34:00+09:00,1.8,�k�k��,3.3,�k�k��,6.6,87.3,0,0,0,0
2023-04-03T00:35:00+09:00,1.8,�k�k��,3.3,�k�k��,6.6,87.4,0,0,0,0
2023-04-03T00:36:00+09:00,1.8,�k�k��,3.3,�k�k��,6.6,87.6,0,0,0,0
2023-04-03T00:37:00+09:00,1.8,�k�k��,3.3,�k�k��,6.5,87.3,0,0,0,0
2023-04-03T00:38:00+09:00,1.9,�k�k��,3.3,�k�k��,6.6,87.5,0,0,0,0
2023-04-03T00:39:00+09:00,2,�k�k��,3.3,�k�k��,6.6,87.8,0,0,0,0
2023-04-03T00:40:00+09:00,2.1,�k�k��,3.3,�k�k��,6.7,88.2,0,0,0,0
2023-04-03T00:41:00+09:00,2.2,�k�k��,3.7,�k,6.7,88.1,0,0,0,0
2023-04-03T00:42:00+09:00,2.2,�k�k��,3.7,�k,6.7,87.8,0,0,0,0
2023-04-03T00:43:00+09:00,2.1,�k�k��,3.7,�k,6.6,87.2,0,0,0,0
2023-04-03T00:44:00+09:00,2,�k�k��,3.7,�k,6.5,87.2,0,0,0,0
2023-04-03T00:45:00+09:00,2,�k�k��,3.7,�k,6.5,87.4,0,0,0,0
2023-04-03T00:46:00+09:00,2,�k�k��,3.7,�k,6.5,87.3,0,0,0,0
2023-04-03T00:47:00+09:00,1.9,�k�k��,3.7,�k,6.6,87.7,0,0,0,0
2023-04-03T00:48:00+09:00,1.8,�k�k��,3.7,�k,6.7,88,0,0,0,0
2023-04-03T00:49:00+09:00,1.7,�k�k��,3.7,�k,6.7,87.9,0,0,0,0
2023-04-03T00:50:00+09:00,1.7,�k,3.7,�k,6.7,87.8,0,0,0,0
2023-04-03T00:51:00+09:00,1.6,�k�k��,2.8,�k�k��,6.6,87.5,0,0,0,0
2023-04-03T00:52:00+09:00,1.5,�k�k��,2.8,�k�k��,6.6,87.2,0,0,0,0
2023-04-03T00:53:00+09:00,1.5,�k�k��,2.8,�k�k��,6.5,87.1,0,0,0,0
2023-04-03T00:54:00+09:00,1.4,�k�k��,2.8,�k�k��,6.4,87,0,0,0,0
2023-04-03T00:55:00+09:00,1.4,�k�k��,2.8,�k�k��,6.4,87.2,0,0,0,0
2023-04-03T00:56:00+09:00,1.4,�k�k��,2.8,�k�k��,6.6,87.9,0,0,0,0
2023-04-03T00:57:00+09:00,1.4,�k�k��,2.8,�k�k��,6.7,88.4,0,0,0,0
2023-04-03T00:58:00+09:00,1.4,�k�k��,2.8,�k�k��,6.7,88.1,0,0,0,0
2023-04-03T00:59:00+09:00,1.4,�k�k��,2.8,�k�k��,6.9,88.4,0,0,0,0
2023-04-03T01:00:00+09:00,1.4,�k�k��,2.8,�k�k��,6.9,88.3,0,0,0,0
2023-04-03T01:01:00+09:00,1.3,�k�k��,2.4,�k,6.9,87.5,0,0,0,0
2023-04-03T01:02:00+09:00,1.3,�k�k��,2.3,�k�k��,6.7,86.6,0,0,0,0
2023-04-03T01:03:00+09:00,1.3,�k�k��,2.2,�k�k��,6.6,86,0,0,0,0
2023-04-03T01:04:00+09:00,1.4,�k�k��,2.2,�k�k��,6.6,86.1,0,0,0,0
2023-04-03T01:05:00+09:00,1.5,�k�k��,2.2,�k�k��,6.6,86.6,0,0,0,0
2023-04-03T01:06:00+09:00,1.5,�k�k��,2.2,�k�k��,6.6,86.9,0,0,0,0
2023-04-03T01:07:00+09:00,1.5,�k�k��,2.2,�k�k��,6.7,87.4,0,0,0,0
2023-04-03T01:08:00+09:00,1.5,�k�k��,2.2,�k�k��,6.6,87.3,0,0,0,0
2023-04-03T01:09:00+09:00,1.5,�k�k��,2.2,�k�k��,6.7,87.2,0,0,0,0
2023-04-03T01:10:00+09:00,1.4,�k�k��,2.2,�k�k��,6.7,87.4,0,0,0,0
2023-04-03T01:11:00+09:00,1.4,�k�k��,2.2,�k�k��,6.8,87.4,0,0,0,0
2023-04-03T01:12:00+09:00,1.4,�k��,2.2,�k�k��,6.9,87.4,0,0,0,0
2023-04-03T01:13:00+09:00,1.3,�k��,2.2,�k�k��,7,87.4,0,0,0,0
2023-04-03T01:14:00+09:00,1.2,�k��,2.2,�k�k��,7,87.2,0,0,0,0
2023-04-03T01:15:00+09:00,1.1,�k��,2.2,�k�k��,7,86.6,0,0,0,0
2023-04-03T01:16:00+09:00,1.1,�k��,2,�k�k��,6.8,85.7,0,0,0,0
2023-04-03T01:17:00+09:00,1.1,�k��,2.3,�k�k��,6.7,85.1,0,0,0,0
2023-04-03T01:18:00+09:00,1.1,�k��,2.4,�k�k��,6.6,85.3,0,0,0,0
2023-04-03T01:19:00+09:00,1.2,�k��,2.4,�k�k��,6.5,85.6,0,0,0,0
2023-04-03T01:20:00+09:00,1.3,�k��,2.5,�k��,6.5,86,0,0,0,0
2023-04-03T01:21:00+09:00,1.4,�k��,2.5,�k��,6.5,86.5,0,0,0,0
2023-04-03T01:22:00+09:00,1.5,�k��,2.5,�k��,6.7,87.3,0,0,0,0
2023-04-03T01:23:00+09:00,1.6,�k��,2.5,�k��,6.8,87.9,0,0,0,0
2023-04-03T01:24:00+09:00,1.7,�k��,2.5,�k��,6.9,87.6,0,0,0,0
2023-04-03T01:25:00+09:00,1.7,�k��,2.5,�k��,6.6,86.6,0,0,0,0
2023-04-03T01:26:00+09:00,1.7,�k��,2.5,�k��,6.5,86,0,0,0,0
2023-04-03T01:27:00+09:00,1.7,�k��,2.5,�k��,6.5,86.1,0,0,0,0
2023-04-03T01:28:00+09:00,1.7,�k��,2.5,�k��,6.6,86.8,0,0,0,0
2023-04-03T01:29:00+09:00,1.6,�k��,2.5,�k��,6.6,87,0,0,0,0
2023-04-03T01:30:00+09:00,1.5,�k��,2.3,�k�k��,6.5,86.9,0,0,0,0
2023-04-03T01:31:00+09:00,1.4,�k��,2.3,�k�k��,6.6,86.9,0,0,0,0
2023-04-03T01:32:00+09:00,1.3,�k�k��,2.3,�k�k��,6.6,87.3,0,0,0,0
2023-04-03T01:33:00+09:00,1.3,�k�k��,2.6,�k�k��,6.7,87.4,0,0,0,0
2023-04-03T01:34:00+09:00,1.3,�k�k��,2.6,�k�k��,6.6,87.4,0,0,0,0
2023-04-03T01:35:00+09:00,1.4,�k�k��,2.6,�k�k��,6.6,87.1,0,0,0,0
2023-04-03T01:36:00+09:00,1.5,�k�k��,2.6,�k�k��,6.7,87.3,0,0,0,0
2023-04-03T01:37:00+09:00,1.4,�k�k��,2.6,�k�k��,6.7,87.3,0,0,0,0
2023-04-03T01:38:00+09:00,1.4,�k�k��,2.6,�k�k��,6.5,86.8,0,0,0,0
2023-04-03T01:39:00+09:00,1.4,�k�k��,2.6,�k�k��,6.4,86.5,0,0,0,0
2023-04-03T01:40:00+09:00,1.4,�k�k��,2.6,�k�k��,6.4,86.7,0,0,0,0
2023-04-03T01:41:00+09:00,1.4,�k�k��,2.6,�k�k��,6.4,87.1,0,0,0,0
2023-04-03T01:42:00+09:00,1.3,�k�k��,2.6,�k�k��,6.4,87.4,0,0,0,0
2023-04-03T01:43:00+09:00,1.2,�k�k��,2.5,�k�k��,6.4,87.8,0,0,0,0
2023-04-03T01:44:00+09:00,1.1,�k�k��,2.5,�k�k��,6.4,87.8,0,0,0,0
2023-04-03T01:45:00+09:00,1.1,�k�k��,2.5,�k�k��,6.3,87.8,0,0,0,0
2023-04-03T01:46:00+09:00,1,�k��,2,�k,6.3,87.9,0,0,0,0
2023-04-03T01:47:00+09:00,1,�k��,1.8,�k�k��,6.3,87.9,0,0,0,0
2023-04-03T01:48:00+09:00,1,�k��,2,�k��,6.4,88.4,0,0,0,0
2023-04-03T01:49:00+09:00,1.1,�k��,2.3,�k�k��,6.4,88.6,0,0,0,0
2023-04-03T01:50:00+09:00,1.2,�k��,2.5,�k�k��,6.5,88.6,0,0,0,0
2023-04-03T01:51:00+09:00,1.2,�k��,2.5,�k�k��,6.4,88.3,0,0,0,0
2023-04-03T01:52:00+09:00,1.3,�k��,2.5,�k�k��,6.4,88.2,0,0,0,0
2023-04-03T01:53:00+09:00,1.4,�k��,2.5,�k�k��,6.6,88.5,0,0,0,0
2023-04-03T01:54:00+09:00,1.4,�k��,2.5,�k�k��,6.7,88.7,0,0,0,0
2023-04-03T01:55:00+09:00,1.5,�k��,2.5,�k�k��,6.6,88.4,0,0,0,0
2023-04-03T01:56:00+09:00,1.5,�k��,2.5,�k�k��,6.6,87.8,0,0,0,0
2023-04-03T01:57:00+09:00,1.6,�k��,2.5,�k�k��,6.6,87.7,0,0,0,0
2023-04-03T01:58:00+09:00,1.5,�k��,2.5,�k�k��,6.6,87.3,0,0,0,0
2023-04-03T01:59:00+09:00,1.5,�k��,2.5,�k�k��,6.7,87.4,0,0,0,0
2023-04-03T02:00:00+09:00,1.4,�k��,2.3,�k,6.8,87.6,0,0,0,0
2023-04-03T02:01:00+09:00,1.4,�k��,2.4,�k�k��,6.8,87.2,0,0,0,0
2023-04-03T02:02:00+09:00,1.5,�k��,2.6,�k,6.7,86.8,0,0,0,0
2023-04-03T02:03:00+09:00,1.6,�k��,2.6,�k,6.6,86.4,0,0,0,0
2023-04-03T02:04:00+09:00,1.6,�k��,2.6,�k,6.5,86.2,0,0,0,0
2023-04-03T02:05:00+09:00,1.6,�k��,2.6,�k,6.4,86.4,0,0,0,0
2023-04-03T02:06:00+09:00,1.6,�k��,2.6,�k,6.4,86.8,0,0,0,0
2023-04-03T02:07:00+09:00,1.6,�k��,2.6,�k,6.4,87.1,0,0,0,0
2023-04-03T02:08:00+09:00,1.7,�k��,2.6,�k,6.3,87.2,0,0,0,0
2023-04-03T02:09:00+09:00,1.7,�k��,2.6,�k,6.4,87.4,0,0,0,0
2023-04-03T02:10:00+09:00,1.7,�k��,2.6,�k,6.4,88,0,0,0,0
2023-04-03T02:11:00+09:00,1.7,�k��,2.6,�k,6.5,88.3,0,0,0,0
2023-04-03T02:12:00+09:00,1.6,�k��,2.6,�k�k��,6.5,88.2,0,0,0,0
2023-04-03T02:13:00+09:00,1.5,�k��,2.5,�k��,6.7,88.5,0,0,0,0
2023-04-03T02:14:00+09:00,1.5,�k��,2.5,�k��,6.8,88.8,0,0,0,0
2023-04-03T02:15:00+09:00,1.4,�k��,2.5,�k��,6.8,88.1,0,0,0,0
2023-04-03T02:16:00+09:00,1.3,�k��,2.5,�k��,6.8,87.2,0,0,0,0
2023-04-03T02:17:00+09:00,1.2,�k��,2.5,�k��,6.7,86.4,0,0,0,0
2023-04-03T02:18:00+09:00,1.1,���k��,2.5,�k��,6.7,86.2,0,0,0,0
2023-04-03T02:19:00+09:00,1.1,���k��,2.5,�k��,6.6,86.1,0,0,0,0
2023-04-03T02:20:00+09:00,1,���k��,1.8,���k��,6.6,86,0,0,0,0
2023-04-03T02:21:00+09:00,1,���k��,2,���k��,6.6,86,0,0,0,0
2023-04-03T02:22:00+09:00,1.1,���k��,2.2,��,6.6,86.2,0,0,0,0
2023-04-03T02:23:00+09:00,1.1,���k��,2.2,��,6.6,86.3,0,0,0,0
2023-04-03T02:24:00+09:00,1.2,���k��,2.2,��,6.6,86.6,0,0,0,0
2023-04-03T02:25:00+09:00,1.2,���k��,2.2,��,6.6,86.5,0,0,0,0
2023-04-03T02:26:00+09:00,1.4,���k��,2.2,��,6.6,86.5,0,0,0,0
2023-04-03T02:27:00+09:00,1.4,���k��,2.2,��,6.7,86.8,0,0,0,0
2023-04-03T02:28:00+09:00,1.5,���k��,2.2,��,6.7,87.1,0,0,0,0
2023-04-03T02:29:00+09:00,1.5,���k��,2.2,��,6.9,87.2,0,0,0,0
2023-04-03T02:30:00+09:00,1.6,���k��,2.2,��,6.9,87.3,0,0,0,0
2023-04-03T02:31:00+09:00,1.6,���k��,2.2,��,6.8,86.4,0,0,0,0
2023-04-03T02:32:00+09:00,1.5,�k��,2.1,�k��,6.9,86.2,0,0,0,0
2023-04-03T02:33:00+09:00,1.6,�k��,2.4,�k�k��,7,86.6,0,0,0,0
2023-04-03T02:34:00+09:00,1.6,�k��,2.4,�k�k��,7.2,86.3,0,0,0,0
2023-04-03T02:35:00+09:00,1.6,�k��,2.5,�k�k��,7.4,86.5,0,0,0,0
2023-04-03T02:36:00+09:00,1.7,�k��,2.6,�k�k��,7.3,84.9,0,0,0,0
2023-04-03T02:37:00+09:00,1.7,�k��,2.6,�k�k��,7.2,84.4,0,0,0,0
2023-04-03T02:38:00+09:00,1.8,�k��,2.6,�k�k��,7.2,84.3,0,0,0,0
2023-04-03T02:39:00+09:00,1.8,�k��,2.6,�k�k��,7.2,84.5,0,0,0,0
2023-04-03T02:40:00+09:00,1.9,�k�k��,3.4,�k,7.2,84.8,0,0,0,0
2023-04-03T02:41:00+09:00,2,�k�k��,3.4,�k,7.5,85.5,0,0,0,0
2023-04-03T02:42:00+09:00,2.1,�k�k��,3.4,�k,7.6,85.3,0,0,0,0
2023-04-03T02:43:00+09:00,2.1,�k�k��,3.4,�k,7.8,84.5,0,0,0,0
2023-04-03T02:44:00+09:00,2,�k�k��,3.4,�k,7.8,83.3,0,0,0,0
2023-04-03T02:45:00+09:00,1.9,�k�k��,3.4,�k,7.7,81.8,0,0,0,0
2023-04-03T02:46:00+09:00,1.7,�k�k��,3.4,�k,7.6,81.4,0,0,0,0
2023-04-03T02:47:00+09:00,1.7,�k�k��,3.4,�k,7.7,81.7,0,0,0,0
2023-04-03T02:48:00+09:00,1.7,�k�k��,3.4,�k,7.8,81.7,0,0,0,0
2023-04-03T02:49:00+09:00,1.7,�k�k��,3.4,�k,7.8,81.2,0,0,0,0
2023-04-03T02:50:00+09:00,1.6,�k�k��,3.1,�k�k��,7.7,80.7,0,0,0,0
2023-04-03T02:51:00+09:00,1.5,�k�k��,3,�k�k��,7.7,81.1,0,0,0,0
2023-04-03T02:52:00+09:00,1.5,�k�k��,2.6,�k,7.7,81.1,0,0,0,0
2023-04-03T02:53:00+09:00,1.6,�k�k��,2.6,�k,7.6,81,0,0,0,0
2023-04-03T02:54:00+09:00,1.7,�k�k��,2.6,�k,7.6,81.1,0,0,0,0
2023-04-03T02:55:00+09:00,1.8,�k�k��,2.6,�k,7.6,81.7,0,0,0,0
2023-04-03T02:56:00+09:00,,,,,,,,,,
2023-04-03T02:57:00+09:00,1.9,�k�k��,2.6,�k,7.8,81.9,0,0,0,0
2023-04-03T02:58:00+09:00,,,,,,,,,,
2023-04-03T02:59:00+09:00,1.8,�k�k��,2.6,�k�k��,8,80.8,0,0,0,0
2023-04-03T03:00:00+09:00,1.8,�k�k��,2.6,�k�k��,8,79.8,0,0,0,0
2023-04-03T03:01:00+09:00,1.7,�k�k��,2.6,�k�k��,7.9,79.6,0,0,0,0
2023-04-03T03:02:00+09:00,1.7,�k�k��,2.9,�k��,8.2,79.8,0,0,0,0
2023-04-03T03:03:00+09:00,1.7,�k�k��,2.9,�k��,8.3,79.4,0,0,0,0
2023-04-03T03:04:00+09:00,1.7,�k�k��,3.4,�k�k��,8.4,78.7,0,0,0,0
2023-04-03T03:05:00+09:00,1.6,�k��,3.4,�k�k��,8.3,78.3,0,0,0,0
2023-04-03T03:06:00+09:00,1.7,�k��,3.6,���k��,8.3,77.9,0,0,0,0
2023-04-03T03:07:00+09:00,1.7,�k��,3.7,�k��,8.4,78.1,0,0,0,0
2023-04-03T03:08:00+09:00,1.7,�k��,3.7,�k��,8.3,77.3,0,0,0,0
2023-04-03T03:09:00+09:00,1.7,�k��,3.7,�k��,8.2,77.2,0,0,0,0
2023-04-03T03:10:00+09:00,1.8,�k��,3.7,�k��,8.1,77.7,0,0,0,0
2023-04-03T03:11:00+09:00,1.8,�k�k��,3.7,�k��,8,78,0,0,0,0
2023-04-03T03:12:00+09:00,1.8,�k�k��,3.7,�k��,7.9,78.5,0,0,0,0
2023-04-03T03:13:00+09:00,1.7,�k�k��,3.7,�k��,8,79.2,0,0,0,0
2023-04-03T03:14:00+09:00,1.7,�k�k��,3.7,�k��,8.2,79.5,0,0,0,0
2023-04-03T03:15:00+09:00,1.9,�k�k��,3.7,�k��,8.3,79,0,0,0,0
2023-04-03T03:16:00+09:00,1.8,�k�k��,3.7,�k��,8.3,78.3,0,0,0,0
2023-04-03T03:17:00+09:00,1.7,�k�k��,3,�k�k��,8.3,77.7,0,0,0,0
2023-04-03T03:18:00+09:00,1.8,�k�k��,3,�k�k��,8.2,77.5,0,0,0,0
2023-04-03T03:19:00+09:00,1.8,�k�k��,3,�k�k��,8.2,77.5,0,0,0,0
2023-04-03T03:20:00+09:00,1.8,�k�k��,3,�k�k��,8.1,77.5,0,0,0,0
2023-04-03T03:21:00+09:00,1.7,�k�k��,3,�k�k��,8,77.7,0,0,0,0
2023-04-03T03:22:00+09:00,1.6,�k�k��,3,�k�k��,8.1,78,0,0,0,0
2023-04-03T03:23:00+09:00,1.7,�k�k��,3.5,�k,8.1,78.1,0,0,0,0
2023-04-03T03:24:00+09:00,1.6,�k�k��,3.5,�k,8.1,78,0,0,0,0
2023-04-03T03:25:00+09:00,1.5,�k�k��,3.5,�k,8.1,77.9,0,0,0,0
2023-04-03T03:26:00+09:00,1.4,�k�k��,3.5,�k,8.1,77.9,0,0,0,0
2023-04-03T03:27:00+09:00,1.4,�k�k��,3.5,�k,8.1,77.9,0,0,0,0
2023-04-03T03:28:00+09:00,1.3,�k�k��,3.5,�k,8.1,77.7,0,0,0,0
2023-04-03T03:29:00+09:00,1.3,�k�k��,3.5,�k,8,77.6,0,0,0,0
2023-04-03T03:30:00+09:00,1.4,�k�k��,3.5,�k,8.1,77.6,0,0,0,0
2023-04-03T03:31:00+09:00,1.5,�k�k��,3.5,�k,8,77.4,0,0,0,0
2023-04-03T03:32:00+09:00,1.6,�k�k��,3.5,�k,8.1,77.4,0,0,0,0
2023-04-03T03:33:00+09:00,1.5,�k�k��,3,�k�k��,8.1,77.2,0,0,0,0
2023-04-03T03:34:00+09:00,1.5,�k�k��,3,�k�k��,8.1,77.2,0,0,0,0
2023-04-03T03:35:00+09:00,1.5,�k�k��,3,�k�k��,8.3,77.5,0,0,0,0
2023-04-03T03:36:00+09:00,1.5,�k�k��,3,�k�k��,8.3,76.9,0,0,0,0
2023-04-03T03:37:00+09:00,1.5,�k�k��,3,�k�k��,8.3,76.3,0,0,0,0
2023-04-03T03:38:00+09:00,1.5,�k�k��,3,�k�k��,8.3,76.3,0,0,0,0
2023-04-03T03:39:00+09:00,1.4,�k�k��,3,�k�k��,8.3,76.2,0,0,0,0
2023-04-03T03:40:00+09:00,1.3,�k�k��,3,�k�k��,8.3,76.1,0,0,0,0
2023-04-03T03:41:00+09:00,1.2,�k�k��,3,�k�k��,8.3,75.9,0,0,0,0
2023-04-03T03:42:00+09:00,1.1,�k�k��,2.1,�k�k��,8.4,75.7,0,0,0,0
2023-04-03T03:43:00+09:00,1,�k�k��,1.9,�k,8.4,75.6,0,0,0,0
2023-04-03T03:44:00+09:00,0.9,�k�k��,1.7,�k�k��,8.4,75.5,0,0,0,0
2023-04-03T03:45:00+09:00,0.9,�k�k��,1.7,�k�k��,8.3,75.4,0,0,0,0
2023-04-03T03:46:00+09:00,0.9,�k�k��,1.7,�k�k��,8.3,75.5,0,0,0,0
2023-04-03T03:47:00+09:00,0.8,�k�k��,1.6,�k�k��,8.3,75.5,0,0,0,0
2023-04-03T03:48:00+09:00,0.9,�k�k��,1.8,�k��,8.4,75.5,0,0,0,0
2023-04-03T03:49:00+09:00,0.9,�k�k��,2,�k�k��,8.3,75.2,0,0,0,0
2023-04-03T03:50:00+09:00,0.9,�k��,2,�k�k��,8.4,75,0,0,0,0
2023-04-03T03:51:00+09:00,0.9,�k��,2,�k�k��,8.3,74.7,0,0,0,0
2023-04-03T03:52:00+09:00,0.8,�k��,2,�k�k��,8.3,74.6,0,0,0,0
2023-04-03T03:53:00+09:00,0.8,�k��,2,�k�k��,8.4,74.6,0,0,0,0
2023-04-03T03:54:00+09:00,0.8,�k��,2,�k�k��,8.5,74.5,0,0,0,0
2023-04-03T03:55:00+09:00,0.7,�k�k��,2,�k�k��,8.5,73.4,0,0,0,0
2023-04-03T03:56:00+09:00,0.7,�k�k��,2,�k�k��,8.5,72.9,0,0,0,0
2023-04-03T03:57:00+09:00,0.8,�k�k��,2,�k�k��,8.5,72.7,0,0,0,0
2023-04-03T03:58:00+09:00,0.9,�k�k��,2.4,�k,8.5,72.6,0,0,0,0
2023-04-03T03:59:00+09:00,1,�k�k��,2.6,�k�k��,8.5,72.2,0,0,0,0
2023-04-03T04:00:00+09:00,0.9,�k�k��,2.6,�k�k��,8.5,71.8,0,0,0,0
2023-04-03T04:01:00+09:00,0.9,�k�k��,2.6,�k�k��,8.4,72,0,0,0,0
2023-04-03T04:02:00+09:00,1,�k�k��,2.6,�k�k��,8.3,72.3,0,0,0,0
2023-04-03T04:03:00+09:00,1,�k�k��,2.6,�k�k��,8.4,72.5,0,0,0,0
2023-04-03T04:04:00+09:00,1,�k�k��,2.6,�k�k��,8.2,72.5,0,0,0,0
2023-04-03T04:05:00+09:00,1,�k��,2.6,�k�k��,8.2,73,0,0,0,0
2023-04-03T04:06:00+09:00,1,�k��,2.6,�k�k��,8.2,73.3,0,0,0,0
2023-04-03T04:07:00+09:00,0.8,�k��,2.6,�k�k��,8.2,73.4,0,0,0,0
2023-04-03T04:08:00+09:00,0.7,���k��,2.6,�k�k��,8.3,73.2,0,0,0,0
2023-04-03T04:09:00+09:00,0.6,���k��,1.4,�k�k��,8.3,72.8,0,0,0,0
2023-04-03T04:10:00+09:00,0.5,���k��,1.4,�k�k��,8.2,73,0,0,0,0
2023-04-03T04:11:00+09:00,0.5,��,1.4,�k�k��,8.2,73.2,0,0,0,0
2023-04-03T04:12:00+09:00,0.5,��,1.3,�k��,8.2,73.3,0,0,0,0
2023-04-03T04:13:00+09:00,0.5,��,1.3,�k��,8,73.4,0,0,0,0
2023-04-03T04:14:00+09:00,0.5,��,1.3,�k��,8,73.7,0,0,0,0
2023-04-03T04:15:00+09:00,0.5,��,0.9,���k��,8.2,74,0,0,0,0
2023-04-03T04:16:00+09:00,0.4,��,0.9,���k��,8.3,73.8,0,0,0,0
2023-04-03T04:17:00+09:00,0.4,��,1,�k�k��,8.4,72.8,0,0,0,0
2023-04-03T04:18:00+09:00,0.5,���k��,1.2,�k�k��,8.5,72.1,0,0,0,0
2023-04-03T04:19:00+09:00,0.5,���k��,1.2,�k�k��,8.6,71.2,0,0,0,0
2023-04-03T04:20:00+09:00,0.4,���k��,1.2,�k�k��,8.6,70.7,0,0,0,0
2023-04-03T04:21:00+09:00,0.4,�k��,1.2,�k�k��,8.4,70.6,0,0,0,0
2023-04-03T04:22:00+09:00,0.4,�k��,1.2,�k�k��,8.2,70.8,0,0,0,0
2023-04-03T04:23:00+09:00,0.4,�k��,1.4,���k��,8,71.6,0,0,0,0
2023-04-03T04:24:00+09:00,0.5,�k��,1.6,���k��,7.9,72.4,0,0,0,0
2023-04-03T04:25:00+09:00,0.6,�k�k��,1.6,���k��,7.9,73,0,0,0,0
2023-04-03T04:26:00+09:00,0.7,�k��,1.6,���k��,8.1,73.6,0,0,0,0
2023-04-03T04:27:00+09:00,0.7,�k��,1.6,���k��,8.1,73.2,0,0,0,0
2023-04-03T04:28:00+09:00,0.8,�k��,1.8,�k��,8,73.1,0,0,0,0
2023-04-03T04:29:00+09:00,0.9,�k��,1.8,�k��,8,73,0,0,0,0
2023-04-03T04:30:00+09:00,1,�k��,1.8,�k��,7.9,73.1,0,0,0,0
2023-04-03T04:31:00+09:00,1.2,�k��,1.8,�k��,7.8,73.6,0,0,0,0
2023-04-03T04:32:00+09:00,1.3,�k��,2.2,�k�k��,7.7,74.2,0,0,0,0
2023-04-03T04:33:00+09:00,1.3,�k��,2.2,�k�k��,7.6,74.8,0,0,0,0
2023-04-03T04:34:00+09:00,1.4,�k��,2.2,�k�k��,7.7,75.3,0,0,0,0
2023-04-03T04:35:00+09:00,1.4,�k��,2.2,�k�k��,7.7,75.3,0,0,0,0
2023-04-03T04:36:00+09:00,1.4,�k�k��,2.2,�k�k��,7.7,75.4,0,0,0,0
2023-04-03T04:37:00+09:00,1.4,�k�k��,2.2,�k�k��,7.7,75.5,0,0,0,0
2023-04-03T04:38:00+09:00,1.4,�k�k��,2.2,�k�k��,7.6,75.6,0,0,0,0
2023-04-03T04:39:00+09:00,1.4,�k�k��,2.2,�k�k��,7.5,75.9,0,0,0,0
2023-04-03T04:40:00+09:00,1.3,�k�k��,2.2,�k�k��,7.5,76.5,0,0,0,0
2023-04-03T04:41:00+09:00,1.3,�k,2.2,�k�k��,7.4,76.7,0,0,0,0
2023-04-03T04:42:00+09:00,1.2,�k,2.1,�k�k��,7.4,77.3,0,0,0,0
2023-04-03T04:43:00+09:00,1.1,�k,1.9,�k�k��,7.3,77.5,0,0,0,0
2023-04-03T04:44:00+09:00,1.1,�k,1.7,�k,7.3,77.8,0,0,0,0
2023-04-03T04:45:00+09:00,1.1,�k,1.7,�k,7.2,78.2,0,0,0,0
2023-04-03T04:46:00+09:00,1.1,�k,1.7,�k,7.2,78.6,0,0,0,0
2023-04-03T04:47:00+09:00,1.1,�k,1.7,�k,7.2,79,0,0,0,0
2023-04-03T04:48:00+09:00,1.1,�k,1.7,�k,7.2,79.2,0,0,0,0
2023-04-03T04:49:00+09:00,1.1,�k�k��,1.7,�k,7.2,79.4,0,0,0,0
2023-04-03T04:50:00+09:00,1,�k�k��,1.7,�k,7.2,79.5,0,0,0,0
2023-04-03T04:51:00+09:00,1,�k�k��,1.7,�k,7.1,79.5,0,0,0,0
2023-04-03T04:52:00+09:00,1,�k�k��,1.7,�k,7,79.6,0,0,0,0
2023-04-03T04:53:00+09:00,1.1,�k�k��,1.7,�k,7,79.8,0,0,0,0
2023-04-03T04:54:00+09:00,1,�k�k��,1.7,�k,6.9,80.3,0,0,0,0
2023-04-03T04:55:00+09:00,1,�k�k��,1.6,�k,6.9,80.8,0,0,0,0
2023-04-03T04:56:00+09:00,0.9,�k�k��,1.5,�k,6.8,81,0,0,0,0
2023-04-03T04:57:00+09:00,0.9,�k�k��,1.5,�k,6.7,81.2,0,0,0,0
2023-04-03T04:58:00+09:00,0.9,�k�k��,1.5,�k,6.7,81.8,0,0,0,0
2023-04-03T04:59:00+09:00,1,�k�k��,1.7,�k,6.8,82.3,0,0,0,0
2023-04-03T05:00:00+09:00,1,�k�k��,1.8,�k,6.9,82.6,0,0,0,0
2023-04-03T05:01:00+09:00,1.1,�k�k��,1.8,�k,6.9,82.6,0,0,0,0
2023-04-03T05:02:00+09:00,1.2,�k�k��,2.2,�k�k��,6.9,82.3,0,0,0,0
2023-04-03T05:03:00+09:00,1.2,�k�k��,2.2,�k�k��,6.9,81.9,0,0,0,0
2023-04-03T05:04:00+09:00,1.2,�k�k��,2.2,�k�k��,6.9,81.7,0,0,0,0
2023-04-03T05:05:00+09:00,1.3,�k�k��,2.2,�k�k��,7,81.8,0,0,0,0
2023-04-03T05:06:00+09:00,1.3,�k�k��,2.2,�k�k��,7,81.6,0,0,0,0
2023-04-03T05:07:00+09:00,1.4,�k,2.2,�k�k��,7,81.4,0,0,0,0
2023-04-03T05:08:00+09:00,1.4,�k,2.2,�k�k��,7,81.1,0,0,0,0
2023-04-03T05:09:00+09:00,1.4,�k,2.2,�k�k��,7,81,0,0,0,0
2023-04-03T05:10:00+09:00,1.4,�k,2.2,�k�k��,6.9,80.8,0,0,0,0
2023-04-03T05:11:00+09:00,1.4,�k,2.3,�k�k��,7,81.1,0,0,0,0
2023-04-03T05:12:00+09:00,1.4,�k,2.3,�k�k��,7,81.3,0,0,0,0
2023-04-03T05:13:00+09:00,1.4,�k,2.3,�k�k��,6.9,81.2,0,0,0,0
2023-04-03T05:14:00+09:00,1.3,�k,2.3,�k�k��,6.9,81.3,0,0,0,0
2023-04-03T05:15:00+09:00,1.2,�k,2.3,�k�k��,6.9,81.3,0,0,0,0
2023-04-03T05:16:00+09:00,1.2,�k�k��,2.3,�k�k��,6.8,81.5,0,0,0,0
2023-04-03T05:17:00+09:00,1.1,�k�k��,2.3,�k�k��,6.7,81.3,0,0,0,0
2023-04-03T05:18:00+09:00,1.2,�k�k��,2.3,�k�k��,6.6,81.6,0,0,0,0
2023-04-03T05:19:00+09:00,1.2,�k�k��,2.3,�k�k��,6.6,82,0,0,0,0
2023-04-03T05:20:00+09:00,1.1,�k�k��,2.3,�k�k��,6.5,82.3,0,0,0,0
2023-04-03T05:21:00+09:00,1,�k��,2,�k,6.4,82.6,0,0,0,0
2023-04-03T05:22:00+09:00,1,�k��,1.8,�k,6.5,83.3,0,0,0,0
2023-04-03T05:23:00+09:00,1,�k��,2,�k�k��,6.5,83.8,0,0,0,0
2023-04-03T05:24:00+09:00,1.1,�k��,2,�k�k��,6.6,84,0,0,0,0
2023-04-03T05:25:00+09:00,1.1,�k��,2,�k�k��,6.7,84.2,0,0,0,0
2023-04-03T05:26:00+09:00,1.2,�k��,2,�k�k��,6.7,84.1,0,0,0,0
2023-04-03T05:27:00+09:00,1.2,�k��,2,�k�k��,6.7,83.9,0,0,0,0
2023-04-03T05:28:00+09:00,1.2,�k��,2,�k�k��,6.7,83.5,0,0,0,0
2023-04-03T05:29:00+09:00,1.2,�k�k��,2,�k�k��,6.7,83.2,0,0,0,0
2023-04-03T05:30:00+09:00,1.2,�k�k��,2,�k�k��,6.7,83.1,0,0,0,0
2023-04-03T05:31:00+09:00,1.2,�k�k��,2,�k�k��,6.6,83.3,0,0,0,0
2023-04-03T05:32:00+09:00,1.2,�k�k��,2,�k�k��,6.6,83.2,0,0,0,0
2023-04-03T05:33:00+09:00,1.1,�k�k��,1.8,�k�k��,6.6,83.3,0,0,0,0
2023-04-03T05:34:00+09:00,1.1,�k�k��,1.6,�k�k��,6.7,83.6,0,0,0,0
2023-04-03T05:35:00+09:00,1.1,�k�k��,1.6,�k�k��,6.6,83.5,0,0,0,0
2023-04-03T05:36:00+09:00,1.1,�k�k��,1.6,�k�k��,6.6,83.4,0,0,0,0
2023-04-03T05:37:00+09:00,1.2,�k�k��,1.6,�k�k��,6.8,83.9,0,0,0,0
2023-04-03T05:38:00+09:00,1.2,�k�k��,1.8,�k�k��,6.7,83.7,0,0,0,0
2023-04-03T05:39:00+09:00,1.2,�k�k��,2,�k,6.7,83.2,0,0,0,0
2023-04-03T05:40:00+09:00,1.3,�k�k��,2.1,�k,6.7,83.5,0,0,0,0
2023-04-03T05:41:00+09:00,1.3,�k�k��,2.1,�k,6.7,83.5,0,0,0,0
2023-04-03T05:42:00+09:00,1.3,�k�k��,2.1,�k,6.7,83.6,0,0,0,0
2023-04-03T05:43:00+09:00,1.3,�k�k��,2.1,�k,6.7,83.7,0,0,0,0
2023-04-03T05:44:00+09:00,1.2,�k,2.1,�k,6.7,83.5,0,0,0,0
2023-04-03T05:45:00+09:00,1.1,�k�k��,2.1,�k,6.6,83.3,0,0,0,0
2023-04-03T05:46:00+09:00,1.1,�k�k��,2.1,�k,6.6,83.4,0,0,0,0
2023-04-03T05:47:00+09:00,1.1,�k�k��,2.1,�k,6.5,83.3,0,0,0,0
2023-04-03T05:48:00+09:00,1,�k�k��,2.1,�k,6.5,83.8,0,0,0,0
2023-04-03T05:49:00+09:00,1,�k�k��,2.1,�k,6.5,83.9,0,0,0,0
2023-04-03T05:50:00+09:00,1,�k�k��,1.9,�k,6.5,84.1,0,0,0,0
2023-04-03T05:51:00+09:00,1,�k�k��,2.3,�k,6.5,84.5,0,0,0,0
2023-04-03T05:52:00+09:00,1,�k�k��,2.4,�k�k��,6.6,84.9,0,0,0,0
2023-04-03T05:53:00+09:00,1.2,�k��,2.4,�k�k��,6.7,84.9,0,0,0,0
2023-04-03T05:54:00+09:00,1.3,�k��,2.4,�k�k��,6.8,84.8,0,0,0,0
2023-04-03T05:55:00+09:00,1.3,�k�k��,2.4,�k�k��,6.9,84.7,0,0,0,0
2023-04-03T05:56:00+09:00,1.3,�k�k��,2.4,�k�k��,6.9,84.1,0,0,0,0
2023-04-03T05:57:00+09:00,1.3,�k�k��,2.4,�k�k��,6.9,83.6,0,0,0,0
2023-04-03T05:58:00+09:00,1.3,�k�k��,2.4,�k�k��,6.9,83.1,0,0,0,0
2023-04-03T05:59:00+09:00,1.3,�k,2.4,�k�k��,6.8,82.9,0,0,0,0
2023-04-03T06:00:00+09:00,1.3,�k,2.4,�k�k��,6.7,82.8,0,0,0,0
2023-04-03T06:01:00+09:00,1.3,�k�k��,2.4,�k�k��,6.7,83,0,0,0,0
2023-04-03T06:02:00+09:00,1.2,�k�k��,2.3,�k�k��,6.6,83.4,0,0,0,0
2023-04-03T06:03:00+09:00,1.2,�k�k��,2,�k�k��,6.7,83.8,0,0,0,0
2023-04-03T06:04:00+09:00,1.1,�k�k��,1.7,�k,6.6,83.9,0,0,0,0
2023-04-03T06:05:00+09:00,1.1,�k�k��,1.7,�k,6.6,84,0,0,0,0
2023-04-03T06:06:00+09:00,1.1,�k,1.7,�k,6.7,84.3,0,0,0,0
2023-04-03T06:07:00+09:00,1.1,�k,1.7,�k,6.8,84.6,0,0,0,0
2023-04-03T06:08:00+09:00,1.1,�k,1.6,�k�k��,6.9,84.6,0,0,0,0
2023-04-03T06:09:00+09:00,1,�k�k��,1.6,�k�k��,6.8,83.8,0,0,0,0
2023-04-03T06:10:00+09:00,1,�k�k��,1.7,��,7.2,83.8,0,0,0,0
2023-04-03T06:11:00+09:00,0.9,�k�k��,1.7,��,7.6,83.8,0,0,0,0
2023-04-03T06:12:00+09:00,0.9,�k�k��,1.7,��,7.2,80.6,0,0,0,0
2023-04-03T06:13:00+09:00,0.9,�k�k��,1.8,�k��,7,79.9,0,0,0,0
2023-04-03T06:14:00+09:00,1,�k�k��,2.1,�k��,7.1,80.7,0,0,0,0
2023-04-03T06:15:00+09:00,1.1,�k��,2.4,�k�k��,7.2,80.9,0,0,0,0
2023-04-03T06:16:00+09:00,1.1,�k��,2.4,�k�k��,7.2,81,0,0,0,0
2023-04-03T06:17:00+09:00,1.2,�k��,2.4,�k�k��,7.1,80.8,0,0,0,0
2023-04-03T06:18:00+09:00,1.3,�k��,2.4,�k�k��,7.1,81,0,0,0,0
2023-04-03T06:19:00+09:00,1.4,�k��,2.4,�k�k��,7,81,0,0,0,0
2023-04-03T06:20:00+09:00,1.5,�k�k��,2.4,�k�k��,7,81.2,0,0,0,0
2023-04-03T06:21:00+09:00,1.6,�k�k��,2.4,�k�k��,7.1,81.6,0,0,0,0
2023-04-03T06:22:00+09:00,1.7,�k�k��,2.4,�k�k��,7.1,81.6,0,0,0,0
2023-04-03T06:23:00+09:00,1.7,�k�k��,2.4,�k�k��,7.2,81.5,0,0,0,0
2023-04-03T06:24:00+09:00,1.7,�k�k��,2.4,�k�k��,7.2,81.6,0,0,0,0
2023-04-03T06:25:00+09:00,1.7,�k,2.5,�k,7.2,81.5,0,0,0,0
2023-04-03T06:26:00+09:00,1.7,�k,2.5,�k,7.2,81.3,0,0,0,0